Year,Month,Day,Hour,Minute,Value (Times are PST for temperature in C)
2016,05,05,00,00,9.90
2016,05,05,00,01,9.80
2016,05,05,00,02,9.80
2016,05,05,00,03,9.80
2016,05,05,00,04,9.80
2016,05,05,00,05,9.80
2016,05,05,00,06,9.80
2016,05,05,00,07,9.80
2016,05,05,00,08,9.80
2016,05,05,00,09,9.80
2016,05,05,00,10,9.80
2016,05,05,00,11,9.80
2016,05,05,00,12,9.80
2016,05,05,00,13,9.80
2016,05,05,00,14,9.70
2016,05,05,00,15,9.70
2016,05,05,00,16,9.70
2016,05,05,00,17,9.70
2016,05,05,00,18,9.70
2016,05,05,00,19,9.70
2016,05,05,00,20,9.70
2016,05,05,00,21,9.70
2016,05,05,00,22,9.70
2016,05,05,00,23,9.70
2016,05,05,00,24,9.70
2016,05,05,00,25,9.70
2016,05,05,00,26,9.70
2016,05,05,00,27,9.70
2016,05,05,00,28,9.70
2016,05,05,00,29,9.70
2016,05,05,00,30,9.70
2016,05,05,00,31,9.70
2016,05,05,00,32,9.70
2016,05,05,00,33,9.70
2016,05,05,00,34,9.70
2016,05,05,00,35,9.70
2016,05,05,00,36,9.70
2016,05,05,00,37,9.70
2016,05,05,00,38,9.60
2016,05,05,00,39,9.60
2016,05,05,00,40,9.60
2016,05,05,00,41,9.60
2016,05,05,00,42,9.60
2016,05,05,00,43,9.60
2016,05,05,00,44,9.60
2016,05,05,00,45,9.60
2016,05,05,00,46,9.60
2016,05,05,00,47,9.60
2016,05,05,00,48,9.60
2016,05,05,00,49,9.60
2016,05,05,00,50,9.60
2016,05,05,00,51,9.50
2016,05,05,00,52,9.50
2016,05,05,00,53,9.50
2016,05,05,00,54,9.50
2016,05,05,00,55,9.50
2016,05,05,00,56,9.50
2016,05,05,00,57,9.50
2016,05,05,00,58,9.50
2016,05,05,00,59,9.50
2016,05,05,01,00,9.50
2016,05,05,01,01,9.50
2016,05,05,01,02,9.50
2016,05,05,01,03,9.50
2016,05,05,01,04,9.40
2016,05,05,01,05,9.40
2016,05,05,01,06,9.40
2016,05,05,01,07,9.40
2016,05,05,01,08,9.40
2016,05,05,01,09,9.40
2016,05,05,01,10,9.40
2016,05,05,01,11,9.40
2016,05,05,01,12,9.40
2016,05,05,01,13,9.30
2016,05,05,01,14,9.30
2016,05,05,01,15,9.30
2016,05,05,01,16,9.30
2016,05,05,01,17,9.30
2016,05,05,01,18,9.30
2016,05,05,01,19,9.30
2016,05,05,01,20,9.30
2016,05,05,01,21,9.30
2016,05,05,01,22,9.30
2016,05,05,01,23,9.30
2016,05,05,01,24,9.30
2016,05,05,01,25,9.20
2016,05,05,01,26,9.20
2016,05,05,01,27,9.20
2016,05,05,01,28,9.20
2016,05,05,01,29,9.20
2016,05,05,01,30,9.20
2016,05,05,01,31,9.20
2016,05,05,01,32,9.20
2016,05,05,01,33,9.20
2016,05,05,01,34,9.20
2016,05,05,01,35,9.20
2016,05,05,01,36,9.20
2016,05,05,01,37,9.20
2016,05,05,01,38,9.20
2016,05,05,01,39,9.20
2016,05,05,01,40,9.20
2016,05,05,01,41,9.20
2016,05,05,01,42,9.20
2016,05,05,01,43,9.10
2016,05,05,01,44,9.10
2016,05,05,01,45,9.10
2016,05,05,01,46,9.10
2016,05,05,01,47,9.10
2016,05,05,01,48,9.10
2016,05,05,01,49,9.10
2016,05,05,01,50,9.00
2016,05,05,01,51,9.00
2016,05,05,01,52,9.00
2016,05,05,01,53,8.90
2016,05,05,01,54,8.90
2016,05,05,01,55,8.90
2016,05,05,01,56,8.90
2016,05,05,01,57,8.90
2016,05,05,01,58,8.80
2016,05,05,01,59,8.80
2016,05,05,02,00,8.80
2016,05,05,02,01,8.80
2016,05,05,02,02,8.80
2016,05,05,02,03,8.80
2016,05,05,02,04,8.80
2016,05,05,02,05,8.80
2016,05,05,02,06,8.70
2016,05,05,02,07,8.70
2016,05,05,02,08,8.70
2016,05,05,02,09,8.70
2016,05,05,02,10,8.70
2016,05,05,02,11,8.70
2016,05,05,02,12,8.70
2016,05,05,02,13,8.70
2016,05,05,02,14,8.70
2016,05,05,02,15,8.70
2016,05,05,02,16,8.70
2016,05,05,02,17,8.60
2016,05,05,02,18,8.60
2016,05,05,02,19,8.60
2016,05,05,02,20,8.60
2016,05,05,02,21,8.60
2016,05,05,02,22,8.60
2016,05,05,02,23,8.60
2016,05,05,02,24,8.60
2016,05,05,02,25,8.60
2016,05,05,02,26,8.60
2016,05,05,02,27,8.60
2016,05,05,02,28,8.60
2016,05,05,02,29,8.70
2016,05,05,02,30,8.70
2016,05,05,02,31,8.70
2016,05,05,02,32,8.60
2016,05,05,02,33,8.60
2016,05,05,02,34,8.60
2016,05,05,02,35,8.60
2016,05,05,02,36,8.60
2016,05,05,02,37,8.60
2016,05,05,02,38,8.50
2016,05,05,02,39,8.50
2016,05,05,02,40,8.50
2016,05,05,02,41,8.50
2016,05,05,02,42,8.50
2016,05,05,02,43,8.40
2016,05,05,02,44,8.40
2016,05,05,02,45,8.40
2016,05,05,02,46,8.40
2016,05,05,02,47,8.40
2016,05,05,02,48,8.40
2016,05,05,02,49,8.40
2016,05,05,02,50,8.30
2016,05,05,02,51,8.30
2016,05,05,02,52,8.30
2016,05,05,02,53,8.30
2016,05,05,02,54,8.30
2016,05,05,02,55,8.30
2016,05,05,02,56,8.30
2016,05,05,02,57,8.30
2016,05,05,02,58,8.30
2016,05,05,02,59,8.30
2016,05,05,03,00,8.30
2016,05,05,03,01,8.30
2016,05,05,03,02,8.20
2016,05,05,03,03,8.20
2016,05,05,03,04,8.20
2016,05,05,03,05,8.20
2016,05,05,03,06,8.20
2016,05,05,03,07,8.20
2016,05,05,03,08,8.20
2016,05,05,03,09,8.20
2016,05,05,03,10,8.20
2016,05,05,03,11,8.20
2016,05,05,03,12,8.20
2016,05,05,03,13,8.20
2016,05,05,03,14,8.20
2016,05,05,03,15,8.30
2016,05,05,03,16,8.30
2016,05,05,03,17,8.30
2016,05,05,03,18,8.30
2016,05,05,03,19,8.30
2016,05,05,03,20,8.20
2016,05,05,03,21,8.20
2016,05,05,03,22,8.20
2016,05,05,03,23,8.20
2016,05,05,03,24,8.20
2016,05,05,03,25,8.20
2016,05,05,03,26,8.20
2016,05,05,03,27,8.20
2016,05,05,03,28,8.20
2016,05,05,03,29,8.20
2016,05,05,03,30,8.20
2016,05,05,03,31,8.20
2016,05,05,03,32,8.20
2016,05,05,03,33,8.20
2016,05,05,03,34,8.10
2016,05,05,03,35,8.10
2016,05,05,03,36,8.10
2016,05,05,03,37,8.10
2016,05,05,03,38,8.10
2016,05,05,03,39,8.10
2016,05,05,03,40,8.10
2016,05,05,03,41,8.10
2016,05,05,03,42,8.10
2016,05,05,03,43,8.10
2016,05,05,03,44,8.10
2016,05,05,03,45,8.10
2016,05,05,03,46,8.10
2016,05,05,03,47,8.10
2016,05,05,03,48,8.10
2016,05,05,03,49,8.10
2016,05,05,03,50,8.10
2016,05,05,03,51,8.10
2016,05,05,03,52,8.10
2016,05,05,03,53,8.10
2016,05,05,03,54,8.10
2016,05,05,03,55,8.10
2016,05,05,03,56,8.10
2016,05,05,03,57,8.10
2016,05,05,03,58,8.10
2016,05,05,03,59,8.00
2016,05,05,04,00,8.00
2016,05,05,04,01,8.00
2016,05,05,04,02,8.00
2016,05,05,04,03,8.00
2016,05,05,04,04,7.90
2016,05,05,04,05,7.90
2016,05,05,04,06,7.90
2016,05,05,04,07,7.90
2016,05,05,04,08,7.90
2016,05,05,04,09,7.90
2016,05,05,04,10,7.80
2016,05,05,04,11,7.80
2016,05,05,04,12,7.80
2016,05,05,04,13,7.80
2016,05,05,04,14,7.80
2016,05,05,04,15,7.80
2016,05,05,04,16,7.80
2016,05,05,04,17,7.80
2016,05,05,04,18,7.80
2016,05,05,04,19,7.80
2016,05,05,04,20,7.80
2016,05,05,04,21,7.70
2016,05,05,04,22,7.70
2016,05,05,04,23,7.70
2016,05,05,04,24,7.70
2016,05,05,04,25,7.70
2016,05,05,04,26,7.70
2016,05,05,04,27,7.70
2016,05,05,04,28,7.70
2016,05,05,04,29,7.60
2016,05,05,04,30,7.60
2016,05,05,04,31,7.60
2016,05,05,04,32,7.60
2016,05,05,04,33,7.60
2016,05,05,04,34,7.60
2016,05,05,04,35,7.60
2016,05,05,04,36,7.60
2016,05,05,04,37,7.60
2016,05,05,04,38,7.60
2016,05,05,04,39,7.60
2016,05,05,04,40,7.60
2016,05,05,04,41,7.60
2016,05,05,04,42,7.60
2016,05,05,04,43,7.60
2016,05,05,04,44,7.60
2016,05,05,04,45,7.60
2016,05,05,04,46,7.60
2016,05,05,04,47,7.60
2016,05,05,04,48,7.60
2016,05,05,04,49,7.60
2016,05,05,04,50,7.60
2016,05,05,04,51,7.60
2016,05,05,04,52,7.60
2016,05,05,04,53,7.60
2016,05,05,04,54,7.60
2016,05,05,04,55,7.60
2016,05,05,04,56,7.60
2016,05,05,04,57,7.60
2016,05,05,04,58,7.60
2016,05,05,04,59,7.60
2016,05,05,05,00,7.60
2016,05,05,05,01,7.60
2016,05,05,05,02,7.60
2016,05,05,05,03,7.60
2016,05,05,05,04,7.60
2016,05,05,05,05,7.60
2016,05,05,05,06,7.60
2016,05,05,05,07,7.60
2016,05,05,05,08,7.60
2016,05,05,05,09,7.60
2016,05,05,05,10,7.60
2016,05,05,05,11,7.60
2016,05,05,05,12,7.60
2016,05,05,05,13,7.60
2016,05,05,05,14,7.60
2016,05,05,05,15,7.60
2016,05,05,05,16,7.60
2016,05,05,05,17,7.60
2016,05,05,05,18,7.60
2016,05,05,05,19,7.60
2016,05,05,05,20,7.60
2016,05,05,05,21,7.70
2016,05,05,05,22,7.70
2016,05,05,05,23,7.70
2016,05,05,05,24,7.70
2016,05,05,05,25,7.70
2016,05,05,05,26,7.70
2016,05,05,05,27,7.70
2016,05,05,05,28,7.60
2016,05,05,05,29,7.60
2016,05,05,05,30,7.60
2016,05,05,05,31,7.60
2016,05,05,05,32,7.60
2016,05,05,05,33,7.60
2016,05,05,05,34,7.60
2016,05,05,05,35,7.60
2016,05,05,05,36,7.60
2016,05,05,05,37,7.60
2016,05,05,05,38,7.60
2016,05,05,05,39,7.60
2016,05,05,05,40,7.60
2016,05,05,05,41,7.60
2016,05,05,05,42,7.60
2016,05,05,05,43,7.60
2016,05,05,05,44,7.60
2016,05,05,05,45,7.70
2016,05,05,05,46,7.70
2016,05,05,05,47,7.70
2016,05,05,05,48,7.70
2016,05,05,05,49,7.70
2016,05,05,05,50,7.70
2016,05,05,05,51,7.70
2016,05,05,05,52,7.70
2016,05,05,05,53,7.70
2016,05,05,05,54,7.70
2016,05,05,05,55,7.70
2016,05,05,05,56,7.70
2016,05,05,05,57,7.70
2016,05,05,05,58,7.70
2016,05,05,05,59,7.70
2016,05,05,06,00,7.70
2016,05,05,06,01,7.70
2016,05,05,06,02,7.70
2016,05,05,06,03,7.70
2016,05,05,06,04,7.70
2016,05,05,06,05,7.70
2016,05,05,06,06,7.70
2016,05,05,06,07,7.70
2016,05,05,06,08,7.70
2016,05,05,06,09,7.70
2016,05,05,06,10,7.70
2016,05,05,06,11,7.70
2016,05,05,06,12,7.70
2016,05,05,06,13,7.70
2016,05,05,06,14,7.70
2016,05,05,06,15,7.70
2016,05,05,06,16,7.70
2016,05,05,06,17,7.70
2016,05,05,06,18,7.70
2016,05,05,06,19,7.70
2016,05,05,06,20,7.80
2016,05,05,06,21,7.80
2016,05,05,06,22,7.80
2016,05,05,06,23,7.80
2016,05,05,06,24,7.80
2016,05,05,06,25,7.80
2016,05,05,06,26,7.80
2016,05,05,06,27,7.80
2016,05,05,06,28,7.90
2016,05,05,06,29,7.90
2016,05,05,06,30,7.90
2016,05,05,06,31,7.90
2016,05,05,06,32,8.00
2016,05,05,06,33,8.00
2016,05,05,06,34,8.00
2016,05,05,06,35,8.00
2016,05,05,06,36,8.00
2016,05,05,06,37,8.10
2016,05,05,06,38,8.10
2016,05,05,06,39,8.10
2016,05,05,06,40,8.10
2016,05,05,06,41,8.10
2016,05,05,06,42,8.10
2016,05,05,06,43,8.20
2016,05,05,06,44,8.20
2016,05,05,06,45,8.20
2016,05,05,06,46,8.20
2016,05,05,06,47,8.20
2016,05,05,06,48,8.30
2016,05,05,06,49,8.30
2016,05,05,06,50,8.30
2016,05,05,06,51,8.30
2016,05,05,06,52,8.30
2016,05,05,06,53,8.40
2016,05,05,06,54,8.40
2016,05,05,06,55,8.40
2016,05,05,06,56,8.50
2016,05,05,06,57,8.50
2016,05,05,06,58,8.50
2016,05,05,06,59,8.60
2016,05,05,07,00,8.60
2016,05,05,07,01,8.60
2016,05,05,07,02,8.60
2016,05,05,07,03,8.70
2016,05,05,07,04,8.70
2016,05,05,07,05,8.70
2016,05,05,07,06,8.70
2016,05,05,07,07,8.80
2016,05,05,07,08,8.80
2016,05,05,07,09,8.80
2016,05,05,07,10,8.80
2016,05,05,07,11,8.90
2016,05,05,07,12,8.90
2016,05,05,07,13,8.90
2016,05,05,07,14,9.00
2016,05,05,07,15,9.00
2016,05,05,07,16,9.00
2016,05,05,07,17,9.10
2016,05,05,07,18,9.10
2016,05,05,07,19,9.10
2016,05,05,07,20,9.20
2016,05,05,07,21,9.20
2016,05,05,07,22,9.20
2016,05,05,07,23,9.20
2016,05,05,07,24,9.20
2016,05,05,07,25,9.30
2016,05,05,07,26,9.30
2016,05,05,07,27,9.30
2016,05,05,07,28,9.30
2016,05,05,07,29,9.40
2016,05,05,07,30,9.40
2016,05,05,07,31,9.40
2016,05,05,07,32,9.50
2016,05,05,07,33,9.50
2016,05,05,07,34,9.50
2016,05,05,07,35,9.60
2016,05,05,07,36,9.60
2016,05,05,07,37,9.60
2016,05,05,07,38,9.60
2016,05,05,07,39,9.70
2016,05,05,07,40,9.70
2016,05,05,07,41,9.70
2016,05,05,07,42,9.80
2016,05,05,07,43,9.80
2016,05,05,07,44,9.80
2016,05,05,07,45,9.90
2016,05,05,07,46,9.90
2016,05,05,07,47,10.00
2016,05,05,07,48,10.00
2016,05,05,07,49,10.00
2016,05,05,07,50,10.00
2016,05,05,07,51,10.10
2016,05,05,07,52,10.10
2016,05,05,07,53,10.10
2016,05,05,07,54,10.20
2016,05,05,07,55,10.20
2016,05,05,07,56,10.30
2016,05,05,07,57,10.30
2016,05,05,07,58,10.30
2016,05,05,07,59,10.40
2016,05,05,08,00,10.40
2016,05,05,08,01,10.40
2016,05,05,08,02,10.40
2016,05,05,08,03,10.50
2016,05,05,08,04,10.50
2016,05,05,08,05,10.50
2016,05,05,08,06,10.60
2016,05,05,08,07,10.60
2016,05,05,08,08,10.60
2016,05,05,08,09,10.60
2016,05,05,08,10,10.60
2016,05,05,08,11,10.60
2016,05,05,08,12,10.60
2016,05,05,08,13,10.60
2016,05,05,08,14,10.70
2016,05,05,08,15,10.70
2016,05,05,08,16,10.70
2016,05,05,08,17,10.70
2016,05,05,08,18,10.70
2016,05,05,08,19,10.70
2016,05,05,08,20,10.70
2016,05,05,08,21,10.80
2016,05,05,08,22,10.80
2016,05,05,08,23,10.90
2016,05,05,08,24,11.00
2016,05,05,08,25,11.00
2016,05,05,08,26,11.10
2016,05,05,08,27,11.10
2016,05,05,08,28,11.20
2016,05,05,08,29,11.20
2016,05,05,08,30,11.20
2016,05,05,08,31,11.20
2016,05,05,08,32,11.20
2016,05,05,08,33,11.20
2016,05,05,08,34,11.20
2016,05,05,08,35,11.20
2016,05,05,08,36,11.30
2016,05,05,08,37,11.30
2016,05,05,08,38,11.40
2016,05,05,08,39,11.40
2016,05,05,08,40,11.40
2016,05,05,08,41,11.50
2016,05,05,08,42,11.50
2016,05,05,08,43,11.60
2016,05,05,08,44,11.70
2016,05,05,08,45,11.70
2016,05,05,08,46,11.70
2016,05,05,08,47,11.80
2016,05,05,08,48,11.80
2016,05,05,08,49,11.80
2016,05,05,08,50,11.80
2016,05,05,08,51,11.80
2016,05,05,08,52,11.80
2016,05,05,08,53,11.90
2016,05,05,08,54,11.90
2016,05,05,08,55,11.90
2016,05,05,08,56,12.00
2016,05,05,08,57,12.10
2016,05,05,08,58,12.10
2016,05,05,08,59,12.10
2016,05,05,09,00,12.10
2016,05,05,09,01,12.10
2016,05,05,09,02,12.10
2016,05,05,09,03,12.10
2016,05,05,09,04,12.10
2016,05,05,09,05,12.20
2016,05,05,09,06,12.20
2016,05,05,09,07,12.30
2016,05,05,09,08,12.40
2016,05,05,09,09,12.40
2016,05,05,09,10,12.30
2016,05,05,09,11,12.30
2016,05,05,09,12,12.30
2016,05,05,09,13,12.30
2016,05,05,09,14,12.40
2016,05,05,09,15,12.40
2016,05,05,09,16,12.40
2016,05,05,09,17,12.40
2016,05,05,09,18,12.40
2016,05,05,09,19,12.40
2016,05,05,09,20,12.50
2016,05,05,09,21,12.50
2016,05,05,09,22,12.60
2016,05,05,09,23,12.70
2016,05,05,09,24,12.80
2016,05,05,09,25,12.90
2016,05,05,09,26,12.90
2016,05,05,09,27,13.00
2016,05,05,09,28,13.00
2016,05,05,09,29,13.00
2016,05,05,09,30,13.10
2016,05,05,09,31,13.10
2016,05,05,09,32,13.10
2016,05,05,09,33,13.20
2016,05,05,09,34,13.20
2016,05,05,09,35,13.30
2016,05,05,09,36,13.30
2016,05,05,09,37,13.40
2016,05,05,09,38,13.40
2016,05,05,09,39,13.40
2016,05,05,09,40,13.40
2016,05,05,09,41,13.50
2016,05,05,09,42,13.50
2016,05,05,09,43,13.60
2016,05,05,09,44,13.60
2016,05,05,09,45,13.60
2016,05,05,09,46,13.60
2016,05,05,09,47,13.60
2016,05,05,09,48,13.60
2016,05,05,09,49,13.60
2016,05,05,09,50,13.60
2016,05,05,09,51,13.60
2016,05,05,09,52,13.60
2016,05,05,09,53,13.60
2016,05,05,09,54,13.60
2016,05,05,09,55,13.60
2016,05,05,09,56,13.50
2016,05,05,09,57,13.60
2016,05,05,09,58,13.60
2016,05,05,09,59,13.70
2016,05,05,10,00,13.80
2016,05,05,10,01,13.80
2016,05,05,10,02,13.90
2016,05,05,10,03,13.90
2016,05,05,10,04,13.90
2016,05,05,10,05,14.00
2016,05,05,10,06,14.00
2016,05,05,10,07,14.10
2016,05,05,10,08,14.10
2016,05,05,10,09,14.00
2016,05,05,10,10,13.90
2016,05,05,10,11,14.00
2016,05,05,10,12,14.10
2016,05,05,10,13,14.10
2016,05,05,10,14,14.10
2016,05,05,10,15,14.10
2016,05,05,10,16,14.20
2016,05,05,10,17,14.20
2016,05,05,10,18,14.30
2016,05,05,10,19,14.30
2016,05,05,10,20,14.40
2016,05,05,10,21,14.60
2016,05,05,10,22,14.70
2016,05,05,10,23,14.80
2016,05,05,10,24,14.80
2016,05,05,10,25,14.90
2016,05,05,10,26,15.00
2016,05,05,10,27,15.00
2016,05,05,10,28,15.00
2016,05,05,10,29,15.00
2016,05,05,10,30,15.00
2016,05,05,10,31,15.00
2016,05,05,10,32,15.00
2016,05,05,10,33,15.10
2016,05,05,10,34,15.20
2016,05,05,10,35,15.30
2016,05,05,10,36,15.30
2016,05,05,10,37,15.30
2016,05,05,10,38,15.30
2016,05,05,10,39,15.40
2016,05,05,10,40,15.40
2016,05,05,10,41,15.50
2016,05,05,10,42,15.50
2016,05,05,10,43,15.60
2016,05,05,10,44,15.60
2016,05,05,10,45,15.60
2016,05,05,10,46,15.60
2016,05,05,10,47,15.60
2016,05,05,10,48,15.60
2016,05,05,10,49,15.60
2016,05,05,10,50,15.50
2016,05,05,10,51,15.60
2016,05,05,10,52,15.60
2016,05,05,10,53,15.60
2016,05,05,10,54,15.60
2016,05,05,10,55,15.70
2016,05,05,10,56,15.70
2016,05,05,10,57,15.80
2016,05,05,10,58,15.80
2016,05,05,10,59,15.70
2016,05,05,11,00,15.70
2016,05,05,11,01,15.70
2016,05,05,11,02,15.70
2016,05,05,11,03,15.70
2016,05,05,11,04,15.80
2016,05,05,11,05,15.80
2016,05,05,11,06,15.80
2016,05,05,11,07,15.80
2016,05,05,11,08,15.80
2016,05,05,11,09,15.80
2016,05,05,11,10,15.80
2016,05,05,11,11,15.80
2016,05,05,11,12,15.80
2016,05,05,11,13,15.80
2016,05,05,11,14,15.80
2016,05,05,11,15,15.90
2016,05,05,11,16,16.00
2016,05,05,11,17,16.10
2016,05,05,11,18,16.10
2016,05,05,11,19,16.10
2016,05,05,11,20,16.10
2016,05,05,11,21,16.20
2016,05,05,11,22,16.30
2016,05,05,11,23,16.30
2016,05,05,11,24,16.30
2016,05,05,11,25,16.30
2016,05,05,11,26,16.40
2016,05,05,11,27,16.50
2016,05,05,11,28,16.60
2016,05,05,11,29,16.70
2016,05,05,11,30,16.80
2016,05,05,11,31,16.80
2016,05,05,11,32,16.90
2016,05,05,11,33,17.00
2016,05,05,11,34,17.10
2016,05,05,11,35,17.10
2016,05,05,11,36,17.20
2016,05,05,11,37,17.20
2016,05,05,11,38,17.30
2016,05,05,11,39,17.30
2016,05,05,11,40,17.40
2016,05,05,11,41,17.40
2016,05,05,11,42,17.40
2016,05,05,11,43,17.40
2016,05,05,11,44,17.40
2016,05,05,11,45,17.30
2016,05,05,11,46,17.30
2016,05,05,11,47,17.20
2016,05,05,11,48,17.20
2016,05,05,11,49,17.20
2016,05,05,11,50,17.30
2016,05,05,11,51,17.30
2016,05,05,11,52,17.30
2016,05,05,11,53,17.30
2016,05,05,11,54,17.20
2016,05,05,11,55,17.20
2016,05,05,11,56,17.20
2016,05,05,11,57,17.20
2016,05,05,11,58,17.30
2016,05,05,11,59,17.30
2016,05,05,12,00,17.30
2016,05,05,12,01,17.30
2016,05,05,12,02,17.30
2016,05,05,12,03,17.30
2016,05,05,12,04,17.40
2016,05,05,12,05,17.40
2016,05,05,12,06,17.50
2016,05,05,12,07,17.60
2016,05,05,12,08,17.70
2016,05,05,12,09,17.80
2016,05,05,12,10,17.90
2016,05,05,12,11,17.80
2016,05,05,12,12,17.80
2016,05,05,12,13,17.80
2016,05,05,12,14,17.80
2016,05,05,12,15,17.80
2016,05,05,12,16,17.90
2016,05,05,12,17,17.90
2016,05,05,12,18,18.00
2016,05,05,12,19,18.00
2016,05,05,12,20,18.00
2016,05,05,12,21,18.10
2016,05,05,12,22,18.20
2016,05,05,12,23,18.30
2016,05,05,12,24,18.30
2016,05,05,12,25,18.40
2016,05,05,12,26,18.50
2016,05,05,12,27,18.60
2016,05,05,12,28,18.60
2016,05,05,12,29,18.60
2016,05,05,12,30,18.60
2016,05,05,12,31,18.60
2016,05,05,12,32,18.60
2016,05,05,12,33,18.60
2016,05,05,12,34,18.70
2016,05,05,12,35,18.70
2016,05,05,12,36,18.80
2016,05,05,12,37,18.80
2016,05,05,12,38,18.80
2016,05,05,12,39,18.80
2016,05,05,12,40,18.80
2016,05,05,12,41,18.80
2016,05,05,12,42,18.80
2016,05,05,12,43,18.80
2016,05,05,12,44,18.80
2016,05,05,12,45,18.80
2016,05,05,12,46,18.70
2016,05,05,12,47,18.70
2016,05,05,12,48,18.70
2016,05,05,12,49,18.70
2016,05,05,12,50,18.70
2016,05,05,12,51,18.70
2016,05,05,12,52,18.70
2016,05,05,12,53,18.80
2016,05,05,12,54,18.80
2016,05,05,12,55,18.90
2016,05,05,12,56,19.00
2016,05,05,12,57,19.00
2016,05,05,12,58,19.10
2016,05,05,12,59,19.10
2016,05,05,13,00,19.10
2016,05,05,13,01,19.10
2016,05,05,13,02,19.00
2016,05,05,13,03,19.00
2016,05,05,13,04,19.00
2016,05,05,13,05,19.00
2016,05,05,13,06,19.10
2016,05,05,13,07,19.10
2016,05,05,13,08,19.20
2016,05,05,13,09,19.30
2016,05,05,13,10,19.30
2016,05,05,13,11,19.40
2016,05,05,13,12,19.40
2016,05,05,13,13,19.30
2016,05,05,13,14,19.30
2016,05,05,13,15,19.30
2016,05,05,13,16,19.30
2016,05,05,13,17,19.30
2016,05,05,13,18,19.30
2016,05,05,13,19,19.40
2016,05,05,13,20,19.50
2016,05,05,13,21,19.50
2016,05,05,13,22,19.50
2016,05,05,13,23,19.50
2016,05,05,13,24,19.50
2016,05,05,13,25,19.60
2016,05,05,13,26,19.60
2016,05,05,13,27,19.60
2016,05,05,13,28,19.60
2016,05,05,13,29,19.70
2016,05,05,13,30,19.70
2016,05,05,13,31,19.80
2016,05,05,13,32,19.80
2016,05,05,13,33,19.80
2016,05,05,13,34,19.80
2016,05,05,13,35,19.80
2016,05,05,13,36,19.90
2016,05,05,13,37,20.00
2016,05,05,13,38,20.00
2016,05,05,13,39,20.10
2016,05,05,13,40,20.10
2016,05,05,13,41,20.20
2016,05,05,13,42,20.20
2016,05,05,13,43,20.20
2016,05,05,13,44,20.20
2016,05,05,13,45,20.10
2016,05,05,13,46,20.10
2016,05,05,13,47,20.10
2016,05,05,13,48,20.10
2016,05,05,13,49,20.20
2016,05,05,13,50,20.20
2016,05,05,13,51,20.20
2016,05,05,13,52,20.30
2016,05,05,13,53,20.30
2016,05,05,13,54,20.40
2016,05,05,13,55,20.30
2016,05,05,13,56,20.30
2016,05,05,13,57,20.30
2016,05,05,13,58,20.20
2016,05,05,13,59,20.30
2016,05,05,14,00,20.20
2016,05,05,14,01,20.30
2016,05,05,14,02,20.30
2016,05,05,14,03,20.40
2016,05,05,14,04,20.50
2016,05,05,14,05,20.50
2016,05,05,14,06,20.60
2016,05,05,14,07,20.60
2016,05,05,14,08,20.70
2016,05,05,14,09,20.80
2016,05,05,14,10,20.90
2016,05,05,14,11,20.90
2016,05,05,14,12,20.90
2016,05,05,14,13,20.90
2016,05,05,14,14,20.80
2016,05,05,14,15,20.80
2016,05,05,14,16,20.80
2016,05,05,14,17,20.90
2016,05,05,14,18,21.00
2016,05,05,14,19,21.10
2016,05,05,14,20,21.10
2016,05,05,14,21,21.20
2016,05,05,14,22,21.20
2016,05,05,14,23,21.20
2016,05,05,14,24,21.20
2016,05,05,14,25,21.30
2016,05,05,14,26,21.40
2016,05,05,14,27,21.40
2016,05,05,14,28,21.40
2016,05,05,14,29,21.40
2016,05,05,14,30,21.50
2016,05,05,14,31,21.50
2016,05,05,14,32,21.60
2016,05,05,14,33,21.60
2016,05,05,14,34,21.60
2016,05,05,14,35,21.60
2016,05,05,14,36,21.60
2016,05,05,14,37,21.70
2016,05,05,14,38,21.70
2016,05,05,14,39,21.80
2016,05,05,14,40,21.70
2016,05,05,14,41,21.70
2016,05,05,14,42,21.70
2016,05,05,14,43,21.80
2016,05,05,14,44,21.80
2016,05,05,14,45,21.60
2016,05,05,14,46,21.50
2016,05,05,14,47,21.40
2016,05,05,14,48,21.50
2016,05,05,14,49,21.50
2016,05,05,14,50,21.60
2016,05,05,14,51,21.60
2016,05,05,14,52,21.60
2016,05,05,14,53,21.60
2016,05,05,14,54,21.60
2016,05,05,14,55,21.50
2016,05,05,14,56,21.50
2016,05,05,14,57,21.50
2016,05,05,14,58,21.50
2016,05,05,14,59,21.50
2016,05,05,15,00,21.40
2016,05,05,15,01,21.40
2016,05,05,15,02,21.40
2016,05,05,15,03,21.50
2016,05,05,15,04,21.60
2016,05,05,15,05,21.80
2016,05,05,15,06,21.90
2016,05,05,15,07,21.90
2016,05,05,15,08,22.00
2016,05,05,15,09,22.00
2016,05,05,15,10,22.00
2016,05,05,15,11,22.00
2016,05,05,15,12,22.00
2016,05,05,15,13,21.90
2016,05,05,15,14,21.90
2016,05,05,15,15,21.80
2016,05,05,15,16,21.90
2016,05,05,15,17,22.00
2016,05,05,15,18,22.20
2016,05,05,15,19,22.10
2016,05,05,15,20,22.10
2016,05,05,15,21,22.10
2016,05,05,15,22,22.10
2016,05,05,15,23,22.10
2016,05,05,15,24,22.10
2016,05,05,15,25,22.10
2016,05,05,15,26,22.20
2016,05,05,15,27,22.20
2016,05,05,15,28,22.30
2016,05,05,15,29,22.40
2016,05,05,15,30,22.40
2016,05,05,15,31,22.40
2016,05,05,15,32,22.40
2016,05,05,15,33,22.40
2016,05,05,15,34,22.30
2016,05,05,15,35,22.40
2016,05,05,15,36,22.30
2016,05,05,15,37,22.30
2016,05,05,15,38,22.20
2016,05,05,15,39,22.20
2016,05,05,15,40,22.20
2016,05,05,15,41,22.20
2016,05,05,15,42,22.30
2016,05,05,15,43,22.30
2016,05,05,15,44,22.30
2016,05,05,15,45,22.20
2016,05,05,15,46,22.20
2016,05,05,15,47,22.20
2016,05,05,15,48,22.30
2016,05,05,15,49,22.30
2016,05,05,15,50,22.30
2016,05,05,15,51,22.40
2016,05,05,15,52,22.40
2016,05,05,15,53,22.50
2016,05,05,15,54,22.50
2016,05,05,15,55,22.50
2016,05,05,15,56,22.40
2016,05,05,15,57,22.40
2016,05,05,15,58,22.40
2016,05,05,15,59,22.40
2016,05,05,16,00,22.30
2016,05,05,16,01,22.30
2016,05,05,16,02,22.30
2016,05,05,16,03,22.40
2016,05,05,16,04,22.40
2016,05,05,16,05,22.30
2016,05,05,16,06,22.30
2016,05,05,16,07,22.30
2016,05,05,16,08,22.30
2016,05,05,16,09,22.40
2016,05,05,16,10,22.50
2016,05,05,16,11,22.60
2016,05,05,16,12,22.70
2016,05,05,16,13,22.70
2016,05,05,16,14,22.80
2016,05,05,16,15,22.80
2016,05,05,16,16,22.80
2016,05,05,16,17,22.90
2016,05,05,16,18,22.90
2016,05,05,16,19,22.80
2016,05,05,16,20,22.80
2016,05,05,16,21,22.70
2016,05,05,16,22,22.70
2016,05,05,16,23,22.60
2016,05,05,16,24,22.60
2016,05,05,16,25,22.70
2016,05,05,16,26,22.60
2016,05,05,16,27,22.60
2016,05,05,16,28,22.50
2016,05,05,16,29,22.50
2016,05,05,16,30,22.50
2016,05,05,16,31,22.50
2016,05,05,16,32,22.50
2016,05,05,16,33,22.60
2016,05,05,16,34,22.60
2016,05,05,16,35,22.60
2016,05,05,16,36,22.60
2016,05,05,16,37,22.60
2016,05,05,16,38,22.70
2016,05,05,16,39,22.70
2016,05,05,16,40,22.80
2016,05,05,16,41,22.80
2016,05,05,16,42,22.80
2016,05,05,16,43,22.90
2016,05,05,16,44,23.00
2016,05,05,16,45,23.00
2016,05,05,16,46,22.90
2016,05,05,16,47,22.90
2016,05,05,16,48,22.90
2016,05,05,16,49,22.80
2016,05,05,16,50,22.80
2016,05,05,16,51,22.80
2016,05,05,16,52,22.70
2016,05,05,16,53,22.80
2016,05,05,16,54,22.80
2016,05,05,16,55,22.80
2016,05,05,16,56,22.80
2016,05,05,16,57,22.90
2016,05,05,16,58,22.90
2016,05,05,16,59,22.80
2016,05,05,17,00,22.80
2016,05,05,17,01,22.80
2016,05,05,17,02,22.80
2016,05,05,17,03,22.90
2016,05,05,17,04,22.90
2016,05,05,17,05,22.90
2016,05,05,17,06,22.90
2016,05,05,17,07,22.90
2016,05,05,17,08,22.80
2016,05,05,17,09,22.90
2016,05,05,17,10,22.80
2016,05,05,17,11,22.80
2016,05,05,17,12,22.80
2016,05,05,17,13,22.80
2016,05,05,17,14,22.80
2016,05,05,17,15,22.80
2016,05,05,17,16,22.80
2016,05,05,17,17,22.70
2016,05,05,17,18,22.70
2016,05,05,17,19,22.70
2016,05,05,17,20,22.80
2016,05,05,17,21,22.80
2016,05,05,17,22,22.90
2016,05,05,17,23,22.90
2016,05,05,17,24,22.90
2016,05,05,17,25,22.80
2016,05,05,17,26,22.90
2016,05,05,17,27,22.90
2016,05,05,17,28,22.80
2016,05,05,17,29,22.80
2016,05,05,17,30,22.70
2016,05,05,17,31,22.70
2016,05,05,17,32,22.70
2016,05,05,17,33,22.70
2016,05,05,17,34,22.70
2016,05,05,17,35,22.70
2016,05,05,17,36,22.70
2016,05,05,17,37,22.80
2016,05,05,17,38,22.70
2016,05,05,17,39,22.70